^^
Saratoga-Weather Station Historical Data
Daily Summary for March 13, 2021 Units:  English    Metric   Both
Daily Weekly Monthly Yearly Custom
  High: Low: Average:
Temperature: 80.2 °F 56.5 °F 67.8 °F
Dew Point: 56.7 °F 44.2 °F 50.7 °F
Humidity: 81% 29% 58%
Wind Speed: 10.1mph 0mph 1.6mph
Wind Gust: 10mph - -
Wind- - South
Pressure: 30.3 in 30.2 in -
Precipitation: 0 in    
Historical Graphs
 
 
Tabular Data for March 13, 2021
Time Temperature Dew Point Pressure Wind Wind Speed Wind Gust Humidity Rainfall Rate (Hourly) solar
00:03 64 °F 56.3 °F 30.2 in West 2.9 mph 5 mph 76% 0 in 0 W/m2
00:08 64 °F 56.7 °F 30.2 in West 2.9 mph 4 mph 77% 0 in 0 W/m2
00:13 63.9 °F 56.5 °F 30.2 in West 2 mph 3 mph 77% 0 in 0 W/m2
00:18 63.9 °F 56.5 °F 30.2 in WSW 2 mph 3 mph 77% 0 in 0 W/m2
00:23 63.7 °F 56.3 °F 30.2 in West 2 mph 3 mph 77% 0 in 0 W/m2
00:28 63.5 °F 56.1 °F 30.2 in West 4 mph 4 mph 77% 0 in 0 W/m2
00:33 63.3 °F 55.9 °F 30.2 in West 2 mph 3 mph 77% 0 in 0 W/m2
00:38 63.3 °F 55.9 °F 30.2 in WNW 2.9 mph 4 mph 77% 0 in 0 W/m2
00:43 63.3 °F 55.6 °F 30.2 in West 0.9 mph 3 mph 76% 0 in 0 W/m2
00:48 63.3 °F 55.6 °F 30.2 in West 0.9 mph 3 mph 76% 0 in 0 W/m2
00:53 63.3 °F 55.6 °F 30.2 in Calm   3 mph 76% 0 in 0 W/m2
00:58 63.1 °F 55.4 °F 30.2 in West 0.9 mph 1 mph 76% 0 in 0 W/m2
01:03 63 °F 55.2 °F 30.2 in NW 0.9 mph 3 mph 76% 0 in 0 W/m2
01:08 62.8 °F 55 °F 30.2 in Calm   1 mph 76% 0 in 0 W/m2
01:13 62.6 °F 54.9 °F 30.2 in WSW 0.9 mph 3 mph 76% 0 in 0 W/m2
01:18 62.4 °F 54.7 °F 30.2 in Calm     76% 0 in 0 W/m2
01:23 62.2 °F 54.9 °F 30.2 in Calm     77% 0 in 0 W/m2
01:28 62.1 °F 54.7 °F 30.2 in Calm     77% 0 in 0 W/m2
01:33 61.7 °F 54.5 °F 30.2 in Calm   1 mph 77% 0 in 0 W/m2
01:38 61.5 °F 54.7 °F 30.2 in Calm   2 mph 78% 0 in 0 W/m2
01:43 61.3 °F 54.5 °F 30.2 in Calm   1 mph 78% 0 in 0 W/m2
01:48 61.2 °F 54.7 °F 30.2 in WSW 2 mph 2 mph 79% 0 in 0 W/m2
01:53 61 °F 54.1 °F 30.2 in North 0.9 mph 4 mph 78% 0 in 0 W/m2
01:58 61.2 °F 54 °F 30.2 in Calm   3 mph 77% 0 in 0 W/m2
02:03 61.3 °F 54.1 °F 30.2 in West 0.9 mph 4 mph 77% 0 in 0 W/m2
02:08 61.3 °F 54.1 °F 30.2 in WNW 4 mph 4 mph 77% 0 in 0 W/m2
02:13 61.3 °F 53.8 °F 30.2 in West 0.9 mph 4 mph 76% 0 in 0 W/m2
02:18 61.3 °F 53.8 °F 30.2 in WNW 0.9 mph 4 mph 76% 0 in 0 W/m2
02:23 61.3 °F 53.8 °F 30.2 in North 2.9 mph 3 mph 76% 0 in 0 W/m2
02:28 61.3 °F 53.8 °F 30.2 in Calm   2 mph 76% 0 in 0 W/m2
02:33 61.2 °F 53.6 °F 30.2 in NNW 0.9 mph 3 mph 76% 0 in 0 W/m2
02:38 61.2 °F 53.2 °F 30.2 in Calm   3 mph 75% 0 in 0 W/m2
02:43 61 °F 53.1 °F 30.2 in Calm   2 mph 75% 0 in 0 W/m2
02:48 61 °F 53.1 °F 30.2 in West 2.9 mph 3 mph 75% 0 in 0 W/m2
02:53 60.8 °F 52.9 °F 30.2 in NW 0.9 mph 4 mph 75% 0 in 0 W/m2
02:58 60.6 °F 52.7 °F 30.2 in SW 2 mph 4 mph 75% 0 in 0 W/m2
03:03 60.8 °F 52.9 °F 30.2 in WSW 0.9 mph 2 mph 75% 0 in 0 W/m2
03:08 60.8 °F 52.9 °F 30.2 in WSW 0.9 mph 4 mph 75% 0 in 0 W/m2
03:13 60.6 °F 52.7 °F 30.2 in WSW 0.9 mph 4 mph 75% 0 in 0 W/m2
03:18 60.6 °F 52.7 °F 30.2 in Calm     75% 0 in 0 W/m2
03:23 60.4 °F 52.9 °F 30.2 in Calm   4 mph 76% 0 in 0 W/m2
03:28 60.3 °F 52.7 °F 30.2 in Calm     76% 0 in 0 W/m2
03:33 59.9 °F 52.3 °F 30.2 in Calm     76% 0 in 0 W/m2
03:38 59.5 °F 52.3 °F 30.2 in Calm   1 mph 77% 0 in 0 W/m2
03:43 59.4 °F 52.5 °F 30.2 in Calm   1 mph 78% 0 in 0 W/m2
03:48 59 °F 52.2 °F 30.2 in North 0.9 mph 2 mph 78% 0 in 0 W/m2
03:53 59 °F 52.2 °F 30.2 in ENE 2 mph 4 mph 78% 0 in 0 W/m2
03:58 59.2 °F 52.3 °F 30.2 in Calm   4 mph 78% 0 in 0 W/m2
04:03 59.2 °F 52.3 °F 30.2 in West 0.9 mph 4 mph 78% 0 in 0 W/m2
04:08 59.2 °F 52.3 °F 30.2 in WNW 2 mph 6 mph 78% 0 in 0 W/m2
04:13 59.2 °F 52.3 °F 30.2 in West 2.9 mph 4 mph 78% 0 in 0 W/m2
04:18 58.8 °F 52 °F 30.2 in WNW 0.9 mph 4 mph 78% 0 in 0 W/m2
04:23 58.6 °F 51.8 °F 30.2 in WNW 0.9 mph 2 mph 78% 0 in 0 W/m2
04:28 58.5 °F 52 °F 30.2 in Calm   1 mph 79% 0 in 0 W/m2
04:33 58.3 °F 51.8 °F 30.2 in South 2 mph 3 mph 79% 0 in 0 W/m2
04:38 57.9 °F 51.8 °F 30.2 in Calm   1 mph 80% 0 in 0 W/m2
04:43 57.7 °F 51.6 °F 30.2 in WSW 0.9 mph 2 mph 80% 0 in 0 W/m2
04:48 57.7 °F 51.6 °F 30.2 in East 0.9 mph 2 mph 80% 0 in 0 W/m2
04:53 57.7 °F 51.3 °F 30.2 in NNW 0.9 mph 2 mph 79% 0 in 0 W/m2
04:58 57.7 °F 51.3 °F 30.2 in NE 2 mph 4 mph 79% 0 in 0 W/m2
05:03 57.7 °F 51.3 °F 30.2 in NE 0.9 mph 5 mph 79% 0 in 0 W/m2
05:08 57.7 °F 51.6 °F 30.2 in North 0.9 mph 2 mph 80% 0 in 0 W/m2
05:13 57.6 °F 51.4 °F 30.2 in ENE 0.9 mph 5 mph 80% 0 in 0 W/m2
05:18 57.6 °F 51.1 °F 30.2 in NE 2 mph 2 mph 79% 0 in 0 W/m2
05:23 57.4 °F 51.3 °F 30.2 in Calm   5 mph 80% 0 in 0 W/m2
05:28 57.4 °F 51.3 °F 30.2 in SSW 0.9 mph 1 mph 80% 0 in 0 W/m2
05:33 57.2 °F 51.1 °F 30.2 in WSW 0.9 mph 2 mph 80% 0 in 5 W/m2
05:38 57 °F 50.9 °F 30.2 in Calm   4 mph 80% 0 in 7 W/m2
05:43 56.8 °F 50.7 °F 30.2 in Calm   3 mph 80% 0 in 9 W/m2
05:48 57 °F 50.5 °F 30.2 in Calm   2 mph 79% 0 in 11 W/m2
05:53 56.8 °F 50.4 °F 30.2 in Calm   2 mph 79% 0 in 12 W/m2
05:58 56.8 °F 50.4 °F 30.3 in ESE 0.9 mph 2 mph 79% 0 in 16 W/m2
06:03 56.8 °F 50.7 °F 30.3 in ESE 0.9 mph 2 mph 80% 0 in 18 W/m2
06:08 56.7 °F 50.9 °F 30.3 in SE 2 mph 3 mph 81% 0 in 19 W/m2
06:13 56.5 °F 50.7 °F 30.3 in Calm   1 mph 81% 0 in 21 W/m2
06:18 56.5 °F 50.7 °F 30.3 in Calm   3 mph 81% 0 in 23 W/m2
06:23 56.5 °F 50.7 °F 30.3 in East 0.9 mph 3 mph 81% 0 in 23 W/m2
06:28 56.5 °F 50.4 °F 30.3 in Calm   3 mph 80% 0 in 25 W/m2
06:33 56.5 °F 50.4 °F 30.3 in Calm   1 mph 80% 0 in 26 W/m2
06:38 56.7 °F 50.5 °F 30.3 in Calm   3 mph 80% 0 in 28 W/m2
06:43 56.7 °F 50.2 °F 30.3 in West 2.9 mph 3 mph 79% 0 in 28 W/m2
06:48 56.8 °F 50.4 °F 30.3 in ESE 0.9 mph 2 mph 79% 0 in 30 W/m2
06:53 57 °F 50.5 °F 30.3 in NNW 0.9 mph 2 mph 79% 0 in 30 W/m2
06:58 57 °F 50.5 °F 30.3 in ENE 0.9 mph 3 mph 79% 0 in 32 W/m2
07:03 57.2 °F 50.7 °F 30.3 in NE 0.9 mph 3 mph 79% 0 in 32 W/m2
07:08 57.2 °F 50.4 °F 30.3 in WNW 0.9 mph 2 mph 78% 0 in 33 W/m2
07:13 57.4 °F 50.5 °F 30.3 in ENE 0.9 mph 3 mph 78% 0 in 33 W/m2
07:18 57.4 °F 50.5 °F 30.3 in Calm   1 mph 78% 0 in 33 W/m2
07:24 57.6 °F 50.7 °F 30.3 in NW 4 mph 4 mph 78% 0 in 35 W/m2
07:29 57.7 °F 50.9 °F 30.3 in NNW 0.9 mph 6 mph 78% 0 in 35 W/m2
07:34 57.7 °F 50.9 °F 30.3 in NNW 0.9 mph 3 mph 78% 0 in 37 W/m2
07:39 57.9 °F 51.1 °F 30.3 in West 2 mph 6 mph 78% 0 in 174 W/m2
07:44 58.3 °F 51.1 °F 30.3 in NNW 2 mph 3 mph 77% 0 in 246 W/m2
07:49 58.6 °F 51.4 °F 30.3 in North 0.9 mph 3 mph 77% 0 in 258 W/m2
07:54 59.2 °F 51.6 °F 30.3 in NW 2 mph 2 mph 76% 0 in 272 W/m2
07:59 59.7 °F 52.2 °F 30.3 in NE 2 mph 3 mph 76% 0 in 285 W/m2
08:04 60.4 °F 52.2 °F 30.3 in Calm   1 mph 74% 0 in 295 W/m2
08:09 61.2 °F 52 °F 30.3 in Calm   2 mph 72% 0 in 234 W/m2
08:14 61 °F 51.4 °F 30.3 in NNW 2 mph 6 mph 71% 0 in 132 W/m2
08:19 61.2 °F 52 °F 30.3 in NE 0.9 mph 4 mph 72% 0 in 53 W/m2
08:24 61.3 °F 51.8 °F 30.3 in ENE 0.9 mph 6 mph 71% 0 in 49 W/m2
08:29 61.9 °F 52.3 °F 30.3 in WNW 2 mph 4 mph 71% 0 in 49 W/m2
08:34 61.9 °F 52 °F 30.3 in NNW 2 mph 6 mph 70% 0 in 49 W/m2
08:39 61.9 °F 52 °F 30.3 in NNE 0.9 mph 1 mph 70% 0 in 47 W/m2
08:44 62.1 °F 52.2 °F 30.3 in NW 2 mph 6 mph 70% 0 in 47 W/m2
08:49 62.1 °F 51.8 °F 30.3 in East 4 mph 4 mph 69% 0 in 47 W/m2
08:54 62.2 °F 52 °F 30.3 in East 0.9 mph 5 mph 69% 0 in 47 W/m2
08:59 62.6 °F 52.3 °F 30.3 in WNW 4 mph 4 mph 69% 0 in 47 W/m2
09:04 62.4 °F 52.2 °F 30.3 in ENE 4 mph 6 mph 69% 0 in 47 W/m2
09:09 62.4 °F 52.2 °F 30.3 in NNE 2.9 mph 4 mph 69% 0 in 84 W/m2
09:14 62.8 °F 52 °F 30.3 in NE 2 mph 6 mph 68% 0 in 279 W/m2
09:19 63.1 °F 52.3 °F 30.3 in North 4 mph 4 mph 68% 0 in 483 W/m2
09:24 63.1 °F 52.3 °F 30.3 in ENE 2 mph 4 mph 68% 0 in 513 W/m2
09:29 63.1 °F 52.3 °F 30.3 in ESE 4 mph 6 mph 68% 0 in 533 W/m2
09:34 63.3 °F 52.5 °F 30.3 in ESE 2 mph 8 mph 68% 0 in 550 W/m2
09:39 63.3 °F 51.8 °F 30.3 in North 2 mph 5 mph 66% 0 in 563 W/m2
09:44 63.5 °F 52 °F 30.3 in ENE 2.9 mph 6 mph 66% 0 in 571 W/m2
09:49 63.7 °F 51.6 °F 30.3 in NNW 2.9 mph 5 mph 65% 0 in 587 W/m2
09:54 63.7 °F 51.3 °F 30.3 in East 2 mph 3 mph 64% 0 in 601 W/m2
09:59 64 °F 51.3 °F 30.3 in Calm   4 mph 63% 0 in 617 W/m2
10:04 64.4 °F 52 °F 30.3 in North 0.9 mph 4 mph 64% 0 in 624 W/m2
10:09 64.6 °F 51.6 °F 30.3 in Calm   3 mph 63% 0 in 49 W/m2
10:14 64.8 °F 51.4 °F 30.3 in East 0.9 mph 2 mph 62% 0 in 114 W/m2
10:19 65.1 °F 51.8 °F 30.3 in ENE 2.9 mph 6 mph 62% 0 in 663 W/m2
10:24 65.3 °F 52 °F 30.3 in NW 2 mph 7 mph 62% 0 in 673 W/m2
10:29 65.5 °F 51.6 °F 30.3 in ESE 0.9 mph 7 mph 61% 0 in 691 W/m2
10:34 65.7 °F 51.8 °F 30.3 in ENE 2.9 mph 7 mph 61% 0 in 700 W/m2
10:39 65.8 °F 50.7 °F 30.3 in WNW 2.9 mph 5 mph 58% 0 in 710 W/m2
10:44 65.8 °F 51.1 °F 30.3 in East 2 mph 4 mph 59% 0 in 726 W/m2
10:49 66.2 °F 52 °F 30.3 in NNW 2.9 mph 4 mph 60% 0 in 731 W/m2
10:54 66.2 °F 50.9 °F 30.3 in Calm   4 mph 58% 0 in 744 W/m2
10:59 66.6 °F 50.9 °F 30.3 in WNW 0.9 mph 5 mph 57% 0 in 763 W/m2
11:04 66.7 °F 50.5 °F 30.3 in ENE 2.9 mph 4 mph 56% 0 in 770 W/m2
11:09 67.1 °F 51.4 °F 30.3 in NE 0.9 mph 4 mph 57% 0 in 780 W/m2
11:14 67.5 °F 51.3 °F 30.3 in ESE 2 mph 3 mph 56% 0 in 793 W/m2
11:19 67.6 °F 50.9 °F 30.3 in NW 0.9 mph 4 mph 55% 0 in 796 W/m2
11:24 67.6 °F 50.9 °F 30.3 in WNW 4 mph 6 mph 55% 0 in 800 W/m2
11:29 67.8 °F 52 °F 30.3 in NNW 4 mph 6 mph 57% 0 in 814 W/m2
11:34 68.2 °F 50.9 °F 30.3 in WNW 2 mph 8 mph 54% 0 in 824 W/m2
11:39 68.2 °F 51.4 °F 30.3 in NE 6 mph 6 mph 55% 0 in 831 W/m2
11:44 68.7 °F 51.4 °F 30.3 in ENE 4 mph 6 mph 54% 0 in 846 W/m2
11:49 69.3 °F 51.4 °F 30.3 in NNE 4 mph 6 mph 53% 0 in 853 W/m2
11:54 69.4 °F 51.6 °F 30.3 in NNW 0.9 mph 5 mph 53% 0 in 858 W/m2
11:59 69.3 °F 51.4 °F 30.3 in West 4 mph 5 mph 53% 0 in 865 W/m2
12:04 69.6 °F 52.2 °F 30.3 in NW 0.9 mph 4 mph 54% 0 in 875 W/m2
12:09 70.3 °F 51.8 °F 30.3 in ESE 0.9 mph 3 mph 52% 0 in 879 W/m2
12:14 70.7 °F 50 °F 30.3 in ESE 0.9 mph 7 mph 48% 0 in 879 W/m2
12:19 70.5 °F 52 °F 30.3 in North 2.9 mph 5 mph 52% 0 in 882 W/m2
12:24 70.7 °F 52.2 °F 30.3 in North 4 mph 6 mph 52% 0 in 888 W/m2
12:29 70.7 °F 52.2 °F 30.3 in NW 10.1 mph 10 mph 52% 0 in 898 W/m2
12:34 70.5 °F 51.4 °F 30.3 in East 2.9 mph 7 mph 51% 0 in 902 W/m2
12:39 71.1 °F 52.5 °F 30.3 in East 2.9 mph 5 mph 52% 0 in 912 W/m2
12:44 71.6 °F 52 °F 30.3 in ENE 4 mph 9 mph 50% 0 in 918 W/m2
12:49 72 °F 52.3 °F 30.3 in ENE 6.9 mph 8 mph 50% 0 in 919 W/m2
12:54 72 °F 51.3 °F 30.3 in ENE 2.9 mph 9 mph 48% 0 in 926 W/m2
12:59 71.6 °F 50.4 °F 30.3 in ENE 4.9 mph 7 mph 47% 0 in 932 W/m2
13:04 71.2 °F 50 °F 30.3 in NE 2 mph 5 mph 47% 0 in 939 W/m2
13:09 71.2 °F 50.5 °F 30.3 in ESE 4 mph 7 mph 48% 0 in 932 W/m2
13:14 71.6 °F 50.4 °F 30.3 in NNW 8.1 mph 8 mph 47% 0 in 939 W/m2
13:19 71.6 °F 48.6 °F 30.3 in WNW 2.9 mph 3 mph 44% 0 in 942 W/m2
13:24 71.8 °F 49.8 °F 30.3 in NNW 2.9 mph 4 mph 46% 0 in 942 W/m2
13:29 72.1 °F 50.2 °F 30.3 in NW 4 mph 5 mph 46% 0 in 939 W/m2
13:34 72.3 °F 50.4 °F 30.3 in NE 2 mph 2 mph 46% 0 in 942 W/m2
13:39 72.7 °F 50.7 °F 30.3 in North 4.9 mph 5 mph 46% 0 in 944 W/m2
13:44 73 °F 50.4 °F 30.3 in ENE 2.9 mph 7 mph 45% 0 in 944 W/m2
13:49 73.2 °F 50 °F 30.3 in NNE 0.9 mph 3 mph 44% 0 in 939 W/m2
13:54 73.4 °F 49.5 °F 30.3 in NNW 2 mph 7 mph 43% 0 in 935 W/m2
13:59 73.6 °F 47.8 °F 30.3 in NNW 4 mph 9 mph 40% 0 in 946 W/m2
14:04 73.6 °F 47.8 °F 30.3 in East 2.9 mph 4 mph 40% 0 in 944 W/m2
14:09 73.8 °F 48 °F 30.3 in SW 2 mph 9 mph 40% 0 in 942 W/m2
14:14 73.6 °F 49.1 °F 30.3 in ESE 2 mph 2 mph 42% 0 in 944 W/m2
14:19 73.9 °F 47.5 °F 30.3 in NE 2.9 mph 10 mph 39% 0 in 951 W/m2
14:24 74.1 °F 45.5 °F 30.3 in NNE 2 mph 3 mph 36% 0 in 947 W/m2
14:29 74.8 °F 48.9 °F 30.3 in NW 2.9 mph 4 mph 40% 0 in 946 W/m2
14:34 74.7 °F 49.5 °F 30.3 in Calm   3 mph 41% 0 in 942 W/m2
14:39 74.8 °F 50.2 °F 30.3 in SE 2 mph 4 mph 42% 0 in 930 W/m2
14:44 75.4 °F 50 °F 30.3 in WSW 0.9 mph 3 mph 41% 0 in 930 W/m2
14:49 75.6 °F 47.5 °F 30.3 in ENE 0.9 mph 4 mph 37% 0 in 937 W/m2
14:54 75.6 °F 47.5 °F 30.3 in NNW 4 mph 5 mph 37% 0 in 930 W/m2
14:59 75.9 °F 49.1 °F 30.3 in WSW 0.9 mph 2 mph 39% 0 in 930 W/m2
15:04 76.3 °F 49.5 °F 30.3 in North 2.9 mph 5 mph 39% 0 in 923 W/m2
15:09 76.3 °F 48 °F 30.3 in East 2 mph 3 mph 37% 0 in 919 W/m2
15:14 76.1 °F 47.1 °F 30.3 in SSE 2 mph 4 mph 36% 0 in 912 W/m2
15:19 75.9 °F 48.6 °F 30.3 in NE 2.9 mph 3 mph 38% 0 in 905 W/m2
15:24 76.3 °F 48.7 °F 30.3 in NW 2.9 mph 6 mph 38% 0 in 891 W/m2
15:29 76.6 °F 48.4 °F 30.3 in North 2.9 mph 6 mph 37% 0 in 889 W/m2
15:34 76.6 °F 47.7 °F 30.3 in WNW 0.9 mph 2 mph 36% 0 in 886 W/m2
15:39 77.2 °F 48.9 °F 30.3 in NW 0.9 mph 6 mph 37% 0 in 881 W/m2
15:45 77.4 °F 46.8 °F 30.3 in NNW 2 mph 8 mph 34% 0 in 867 W/m2
15:50 77.4 °F 47.5 °F 30.3 in Calm   6 mph 35% 0 in 861 W/m2
15:55 77.5 °F 48.6 °F 30.3 in NNE 0.9 mph 8 mph 36% 0 in 856 W/m2
16:00 77.5 °F 47.7 °F 30.3 in WSW 0.9 mph 3 mph 35% 0 in 847 W/m2
16:05 77.5 °F 48.6 °F 30.3 in West 0.9 mph 4 mph 36% 0 in 837 W/m2
16:10 77.5 °F 46.9 °F 30.3 in ESE 4 mph 4 mph 34% 0 in 826 W/m2
16:15 77.7 °F 46.4 °F 30.3 in ENE 2 mph 6 mph 33% 0 in 816 W/m2
16:20 78.1 °F 46.6 °F 30.2 in East 2 mph 7 mph 33% 0 in 805 W/m2
16:25 78.1 °F 45.9 °F 30.2 in East 2.9 mph 4 mph 32% 0 in 796 W/m2
16:30 78.1 °F 47.5 °F 30.2 in NNE 4 mph 9 mph 34% 0 in 786 W/m2
16:35 78.1 °F 47.5 °F 30.2 in NNW 0.9 mph 4 mph 34% 0 in 775 W/m2
16:40 78.4 °F 46.9 °F 30.2 in ENE 2.9 mph 7 mph 33% 0 in 763 W/m2
16:45 78.6 °F 47.1 °F 30.2 in East 0.9 mph 5 mph 33% 0 in 752 W/m2
16:50 78.8 °F 45.7 °F 30.2 in WSW 2.9 mph 5 mph 31% 0 in 740 W/m2
16:55 78.4 °F 46.9 °F 30.2 in ESE 2.9 mph 7 mph 33% 0 in 731 W/m2
17:00 78.6 °F 48.7 °F 30.2 in NNW 0.9 mph 1 mph 35% 0 in 719 W/m2
17:05 79.2 °F 44.2 °F 30.2 in WNW 0.9 mph 5 mph 29% 0 in 705 W/m2
17:10 79.3 °F 47.7 °F 30.2 in NE 4.9 mph 6 mph 33% 0 in 687 W/m2
17:15 79.2 °F 47.7 °F 30.2 in SE 0.9 mph 2 mph 33% 0 in 680 W/m2
17:20 79.2 °F 49.1 °F 30.2 in East 2 mph 6 mph 35% 0 in 661 W/m2
17:25 79.3 °F 48.6 °F 30.2 in SE 2 mph 4 mph 34% 0 in 650 W/m2
17:30 79.3 °F 46.9 °F 30.2 in NE 2 mph 3 mph 32% 0 in 640 W/m2
17:35 79.3 °F 48.6 °F 30.2 in ENE 2 mph 5 mph 34% 0 in 626 W/m2
17:40 79.5 °F 50.2 °F 30.2 in ESE 2 mph 8 mph 36% 0 in 613 W/m2
17:45 79.5 °F 48.7 °F 30.2 in ENE 4 mph 8 mph 34% 0 in 599 W/m2
17:50 79.3 °F 47.7 °F 30.2 in ESE 0.9 mph 4 mph 33% 0 in 584 W/m2
17:55 79.3 °F 48.6 °F 30.2 in SW 0.9 mph 8 mph 34% 0 in 573 W/m2
18:00 80.1 °F 51.4 °F 30.2 in ESE 2.9 mph 6 mph 37% 0 in 557 W/m2
18:05 80.2 °F 50.2 °F 30.2 in ESE 2.9 mph 4 mph 35% 0 in 543 W/m2
18:10 80.1 °F 50 °F 30.2 in WNW 0.9 mph 6 mph 35% 0 in 527 W/m2
18:15 79.9 °F 49.8 °F 30.2 in East 6.9 mph 10 mph 35% 0 in 510 W/m2
18:20 79.3 °F 50 °F 30.2 in Calm   4 mph 36% 0 in 483 W/m2
18:25 79.3 °F 50 °F 30.2 in West 2.9 mph 10 mph 36% 0 in 448 W/m2
18:30 79.3 °F 50 °F 30.2 in Calm   2 mph 36% 0 in 415 W/m2
18:35 79.5 °F 49.5 °F 30.2 in North 0.9 mph 4 mph 35% 0 in 378 W/m2
18:40 79.9 °F 51.3 °F 30.2 in NNW 0.9 mph 3 mph 37% 0 in 353 W/m2
18:45 79.7 °F 50.4 °F 30.2 in East 2 mph 6 mph 36% 0 in 325 W/m2
18:50 79.7 °F 50.4 °F 30.2 in NE 2 mph 5 mph 36% 0 in 297 W/m2
18:55 79.7 °F 50.4 °F 30.2 in Calm   6 mph 36% 0 in 278 W/m2
19:00 79.5 °F 49.5 °F 30.2 in NW 2 mph 4 mph 35% 0 in 276 W/m2
19:05 79.5 °F 47.8 °F 30.2 in North 6 mph 6 mph 33% 0 in 290 W/m2
19:10 79.3 °F 50 °F 30.2 in NE 2.9 mph 4 mph 36% 0 in 316 W/m2
19:15 79.3 °F 49.3 °F 30.2 in East 0.9 mph 3 mph 35% 0 in 330 W/m2
19:20 79.7 °F 49.6 °F 30.2 in WNW 0.9 mph 3 mph 35% 0 in 323 W/m2
19:25 79.5 °F 48.7 °F 30.2 in NNE 4 mph 5 mph 34% 0 in 309 W/m2
19:30 79.3 °F 48.6 °F 30.2 in NE 2.9 mph 3 mph 34% 0 in 290 W/m2
19:35 79.7 °F 50.4 °F 30.2 in ENE 2 mph 3 mph 36% 0 in 255 W/m2
19:40 79.3 °F 49.3 °F 30.2 in ESE 0.9 mph 4 mph 35% 0 in 216 W/m2
19:45 79.2 °F 49.8 °F 30.2 in NNW 0.9 mph 2 mph 36% 0 in 190 W/m2
19:50 79.2 °F 49.1 °F 30.2 in East 0.9 mph 4 mph 35% 0 in 188 W/m2
19:55 79 °F 51.3 °F 30.2 in NE 2 mph 3 mph 38% 0 in 190 W/m2
20:00 79 °F 48.9 °F 30.2 in NW 2.9 mph 4 mph 35% 0 in 185 W/m2
20:05 78.6 °F 49.5 °F 30.2 in ESE 0.9 mph 3 mph 36% 0 in 169 W/m2
20:10 78.4 °F 49.3 °F 30.2 in Calm   2 mph 36% 0 in 155 W/m2
20:15 78.3 °F 48.4 °F 30.2 in NE 0.9 mph 4 mph 35% 0 in 141 W/m2
20:20 78.1 °F 48.2 °F 30.2 in WNW 2 mph 3 mph 35% 0 in 128 W/m2
20:25 78.3 °F 48.4 °F 30.2 in NW 0.9 mph 2 mph 35% 0 in 114 W/m2
20:30 78.1 °F 47.5 °F 30.2 in Calm   3 mph 34% 0 in 97 W/m2
20:35 77.9 °F 47.3 °F 30.2 in NE 0.9 mph 2 mph 34% 0 in 79 W/m2
20:40 77.7 °F 47.1 °F 30.2 in Calm   2 mph 34% 0 in 79 W/m2
20:45 77.7 °F 47.1 °F 30.2 in NNW 0.9 mph 3 mph 34% 0 in 67 W/m2
20:50 77.7 °F 48.6 °F 30.2 in East 0.9 mph 2 mph 36% 0 in 63 W/m2
20:55 77.4 °F 49.1 °F 30.2 in Calm   3 mph 37% 0 in 53 W/m2
21:00 77 °F 50.9 °F 30.2 in ESE 0.9 mph 1 mph 40% 0 in 44 W/m2
21:05 76.8 °F 51.3 °F 30.2 in Calm   1 mph 41% 0 in 37 W/m2
21:10 75.9 °F 48.6 °F 30.2 in ENE 0.9 mph 3 mph 38% 0 in 18 W/m2
21:15 75.4 °F 50 °F 30.2 in ENE 0.9 mph 1 mph 41% 0 in 16 W/m2
21:20 74.7 °F 51.3 °F 30.2 in South 0.9 mph 3 mph 44% 0 in 14 W/m2
21:25 73.8 °F 51.1 °F 30.2 in South 0.9 mph 1 mph 45% 0 in 12 W/m2
21:30 72.9 °F 50.9 °F 30.2 in South 2 mph 2 mph 46% 0 in 9 W/m2
21:35 72.1 °F 50.7 °F 30.2 in Calm   1 mph 47% 0 in 7 W/m2
21:40 71.8 °F 49.8 °F 30.2 in Calm   2 mph 46% 0 in 5 W/m2
21:46 71.2 °F 51.1 °F 30.2 in East 0.9 mph 1 mph 49% 0 in 0 W/m2
21:51 70.9 °F 51.3 °F 30.2 in East 0.9 mph 1 mph 50% 0 in 0 W/m2
21:56 70.2 °F 51.3 °F 30.2 in Calm   1 mph 51% 0 in 0 W/m2
22:01 69.4 °F 51.1 °F 30.2 in ESE 0.9 mph 1 mph 52% 0 in 0 W/m2
22:06 68.9 °F 50.5 °F 30.2 in Calm   1 mph 52% 0 in 0 W/m2
22:11 68.4 °F 51.1 °F 30.2 in ESE 0.9 mph 1 mph 54% 0 in 0 W/m2
22:16 67.8 °F 51.1 °F 30.2 in Calm     55% 0 in 0 W/m2
22:21 67.3 °F 50.5 °F 30.2 in SW 0.9 mph 3 mph 55% 0 in 0 W/m2
22:26 67.1 °F 50.4 °F 30.2 in Calm   1 mph 55% 0 in 0 W/m2
22:31 66.7 °F 50 °F 30.2 in SW 0.9 mph 2 mph 55% 0 in 0 W/m2
22:36 66.6 °F 50.4 °F 30.2 in Calm   1 mph 56% 0 in 0 W/m2
22:41 66.4 °F 50.7 °F 30.2 in SW 0.9 mph 2 mph 57% 0 in 0 W/m2
22:46 66 °F 49.8 °F 30.2 in Calm   1 mph 56% 0 in 0 W/m2
22:51 65.8 °F 49.6 °F 30.2 in SW 0.9 mph 2 mph 56% 0 in 0 W/m2
22:56 65.7 °F 49.5 °F 30.2 in Calm   2 mph 56% 0 in 0 W/m2
23:01 65.7 °F 49.5 °F 30.2 in SW 0.9 mph 2 mph 56% 0 in 0 W/m2
23:06 65.5 °F 48.9 °F 30.2 in Calm   2 mph 55% 0 in 0 W/m2
23:11 65.1 °F 49.1 °F 30.2 in SW 0.9 mph 1 mph 56% 0 in 0 W/m2
23:16 65.1 °F 49.1 °F 30.2 in SW 2 mph 2 mph 56% 0 in 0 W/m2
23:21 64.9 °F 49.3 °F 30.2 in Calm   2 mph 57% 0 in 0 W/m2
23:26 64.8 °F 49.1 °F 30.2 in SW 0.9 mph 2 mph 57% 0 in 0 W/m2
23:31 64.6 °F 48.9 °F 30.2 in SW 0.9 mph 2 mph 57% 0 in 0 W/m2
23:36 64.2 °F 49.1 °F 30.2 in SW 0.9 mph 1 mph 58% 0 in 0 W/m2
23:41 63.9 °F 49.3 °F 30.2 in Calm   2 mph 59% 0 in 0 W/m2
23:46 63.7 °F 49.1 °F 30.2 in Calm     59% 0 in 0 W/m2
23:51 63.1 °F 49.5 °F 30.2 in Calm   1 mph 61% 0 in 0 W/m2
23:56 63 °F 49.3 °F 30.2 in Calm   2 mph 61% 0 in 0 W/m2
Juneau County Weather
Compliments of Weather Underground - 4 mb